Flag for Italy Weather past 2 weeks in Messina, Italy

Now
48 °F

Passing clouds.


Feels Like: 46 °F
Forecast: 46 / 53 °F
Wind: 5 mph from Northeast

Location: Reggio Calabria

Current Time: Jan 26, 2015 at 9:44:57 PM

Latest Report: Jan 26, 2015 at 8:50 PM


Visibility: 6 mi

Pressure: 29.98 "Hg

Humidity: 87%

Dew point: 45 °F

Location of MessinaLocation

Historic Weather in Messina — Graph

°F

Messina temperature yesterday

Maximum temperature yesterday: 55 °F (at 1:50 PM)
Minimum temperature yesterday: 48 °F (at 5:50 AM)
Average temperature yesterday: 51 °F

Past Weeks' High & Low Weather Summary

 TemperatureHumidityPressure
High144 °F (Jan 21, 2:50 AM)94% (Jan 25, 9:50 AM)30.51 "Hg (Jan 25, 9:50 AM)
Low45 °F (Jan 26, 5:50 AM)22% (Jan 12, 2:50 PM)29.47 "Hg (Jan 23, 2:50 PM)
Average57 °F69%29.98 "Hg
* Reported Jan 11 7:50 PM — Jan 26 7:50 PM, Messina, Weather by CustomWeather, © 2014

Note: Actual official high and low records may vary slightly from our data, if they occured in-between our weather recording intervals... More about our weather records

Advertising

Messina weather history for previous 24 hours

 ConditionsComfort  
Time TempWeatherWind HumidityBarometerVisibility
7:50 PM
Jan 26
48 °FPassing clouds.1 mph94%29.98 "Hg6 mi
6:50 PM48 °FPassing clouds.2 mph94%29.98 "Hg6 mi
5:50 PM50 °FPassing clouds.3 mph88%29.95 "HgN/A
4:50 PM50 °FScattered clouds.2 mph88%29.95 "HgN/A
3:50 PM50 °FScattered clouds.6 mph88%29.95 "HgN/A
2:50 PM52 °FLight rain. Scattered clouds.8 mph77%29.92 "HgN/A
1:50 PM55 °FScattered clouds.9 mph67%29.92 "HgN/A
12:50 PM55 °FScattered clouds.7 mph72%29.98 "HgN/A
11:50 AM54 °FScattered clouds.9 mph77%29.98 "HgN/A
10:50 AM54 °FScattered clouds.10 mph77%29.95 "HgN/A
9:50 AM54 °FPassing clouds.10 mph77%29.98 "HgN/A
8:50 AM52 °FPassing clouds.6 mph72%29.95 "HgN/A
7:50 AM46 °FPassing clouds.6 mph82%29.98 "HgN/A
6:50 AM46 °FPassing clouds.5 mph87%29.95 "HgN/A
5:50 AM45 °FPassing clouds.5 mph93%29.92 "HgN/A
11:50 PM
Jan 25
48 °FThunderstorms. Partly cloudy.10 mph94%29.95 "HgN/A
10:50 PM48 °FThunderstorms. Passing clouds.3 mph94%29.92 "HgN/A
9:50 PM48 °FPassing clouds.3 mph94%29.89 "HgN/A
Weather by CustomWeather, © 2014

See weather overviewHow to use our weather pages